Weather in Korostyshiv

Ukraine / Zhytomyr Region     50°19′10″N   29°03′34″E
temp.,
°C
wind,
m/s
gust,
m/s
humid.,
%
clouds,
%
prec.,
mm/h
press.,
hPa
HPBL,
m
2 august, mon
mon200:00+21ssw227938 0.0 100834
03:00+20s378082 0.0 1008138
06:00+20sse4128092 0.0 1005266
09:00+26ssw511575 0.0 1005511
12:00+29wsw7114592 0.0 10061532
15:00+26wsw595412 0.1 10081429
18:00+25wnw79540 0.0 10091417
21:00+19wnw49711 0.0 1011529
3 august, tue
tue300:00+15w36822 0.0 1013120
03:00+14w35880 0.0 101494
06:00+13w26925 0.0 1014123
09:00+19wnw356853 0.0 1015593
12:00+23wnw45481 0.0 10151590
15:00+25wnw4541100 0.0 10142404
18:00+23nw355198 0.0 1015674
21:00+20wnw115896 0.0 101615
4 august, wed
wed400:00+16wsw11740 0.0 101711
03:00+15w11795 0.0 101711
06:00+15sw0078100 0.0 101711
09:00+21se225782 0.0 1017333
12:00+25sse344296 0.0 10171591
15:00+26s2544100 0.0 10151327
18:00+17nne8129348 2.1 1015320
21:00+16e51196100 13.8 1015259
5 august, thu
thu500:00+17ese489693 1.4 1015185
03:00+16sse3119695 1.4 1015294
06:00+15s249785 0.0 101499
09:00+20se1182100 0.0 1013221
12:00+25s3461100 0.0 1013947
15:00+28s354534 0.0 10121439
18:00+28sse474845 0.0 10101303
21:00+21ene467959 0.1 1008106
6 august, fri
fri600:00+22sse3126997 0.0 1009253
03:00+21sse31268100 0.0 1008302
06:00+18s41186100 0.3 1008268
09:00+21sse5138646 1.9 1007475
12:00+28s6105551 0.0 10061489
15:00+27s5115598 0.3 10061446
18:00+25sw2468100 0.1 1005415
21:00+19wnw3797100 4.8 1007199